This is the latest recevied weather packets stored in our database for station/object W5GGH. If no packets are shown the sender has not sent any weather packets the latest 1 day(s).
| Time | Temp. | Humidity | Pressure | Rain* | Wind** | Luminosity | Snow |
|---|---|---|---|---|---|---|---|
| 1777991365 | 23.89° C | 81% | 1021.8 hPa | 0 mm | 0.89 m/s, 261° | 210 W/m² | - |
| 1777991062 | 23.33° C | 81% | 1021.9 hPa | 0 mm | 0.45 m/s, 33° | 198 W/m² | - |
| 1777990759 | 23.33° C | 82% | 1022.1 hPa | 0 mm | 0 m/s | 195 W/m² | - |
| 1777990456 | 23.33° C | 82% | 1022 hPa | 0 mm | 2.24 m/s, 92° | 165 W/m² | - |
| 1777990153 | 23.33° C | 82% | 1021.7 hPa | 0 mm | 0.45 m/s, 19° | 158 W/m² | - |
| 1777989850 | 23.33° C | 82% | 1021.8 hPa | 0 mm | 0.89 m/s, 34° | 157 W/m² | - |
| 1777989547 | 23.33° C | 82% | 1021.7 hPa | 0 mm | 1.34 m/s, 45° | 159 W/m² | - |
| 1777989243 | 23.33° C | 82% | 1021.6 hPa | 0 mm | 1.34 m/s, 349° | 142 W/m² | - |
| 1777988939 | 22.78° C | 82% | 1021.6 hPa | 0 mm | 0.89 m/s, 92° | 147 W/m² | - |
| 1777988636 | 22.78° C | 83% | 1021.6 hPa | 0 mm | 0.45 m/s, 61° | 147 W/m² | - |
| 1777988333 | 22.78° C | 83% | 1021.4 hPa | 0 mm | 0.45 m/s, 3° | 143 W/m² | - |
| 1777988029 | 22.78° C | 83% | 1021.4 hPa | 0 mm | 0.89 m/s, 5° | 126 W/m² | - |
| 1777987725 | 22.78° C | 84% | 1021.6 hPa | 0 mm | 0.89 m/s, 333° | 131 W/m² | - |
| 1777987423 | 22.78° C | 84% | 1021.6 hPa | 0 mm | 0.89 m/s, 359° | 130 W/m² | - |
| 1777987119 | 22.22° C | 85% | 1021.4 hPa | 0 mm | 0.89 m/s, 29° | 131 W/m² | - |
| 1777986817 | 22.22° C | 85% | 1021.3 hPa | 0 mm | 0.89 m/s, 14° | 117 W/m² | - |
| 1777986515 | 22.22° C | 86% | 1021.1 hPa | 0 mm | 0.89 m/s, 21° | 103 W/m² | - |
| 1777986212 | 21.67° C | 86% | 1021.2 hPa | 0 mm | 0.89 m/s, 89° | 88 W/m² | - |
| 1777985909 | 21.67° C | 86% | 1021.3 hPa | 0 mm | 1.34 m/s, 60° | 76 W/m² | - |
| 1777985607 | 21.67° C | 87% | 1021.3 hPa | 0 mm | 0.89 m/s, 332° | 79 W/m² | - |
| 1777985303 | 21.67° C | 87% | 1021.4 hPa | 0 mm | 0.45 m/s, 65° | 75 W/m² | - |
| 1777985000 | 21.67° C | 87% | 1021.4 hPa | 0 mm | 0.89 m/s, 0° | 69 W/m² | - |
| 1777984696 | 21.67° C | 87% | 1021 hPa | 0 mm | 1.79 m/s, 156° | 57 W/m² | - |
| 1777984393 | 21.67° C | 87% | 1021.4 hPa | 0 mm | 0.89 m/s, 212° | 47 W/m² | - |
| 1777984089 | 21.67° C | 87% | 1021.2 hPa | 0 mm | 1.34 m/s, 9° | 40 W/m² | - |
* Rain latest hour (hover to see other rain measurements)
** Current wind speed in m/s (hover to see current wind gust speed)